Regional Weather Roundup
Issued by NWS

Home | Current Version | Previous Version | Graphics & Text | Print | Product List | Glossary On
Versions: 1 2 3 4 5 6 7 8 9 10 11 12 13 14 15 16 17 18 19 20 21 22 23 24 25 26 27 28 29 30 31 32 33 34 35 36 37 38 39 40 41 42 43 44 45 46 47 48 49 50
000
ASUS43 KTOP 152159
RWRKS

WEATHER ROUNDUP FOR KANSAS
NATIONAL WEATHER SERVICE GOODLAND KS
400 PM CST FRI DEC 15 2017

NOTE:  "FAIR" INDICATES FEW OR NO CLOUDS BELOW 12,000 FEET WITH NO
SIGNIFICANT WEATHER AND/OR OBSTRUCTIONS TO VISIBILITY.

KSZ001>006-013>018-027>032-041>047-152300-
NORTHWEST KANSAS

CITY           SKY/WX    TMP DP  RH WIND       PRES   REMARKS
GOODLAND       SUNNY     59   5  11 SW14G22   29.89F
HAYS           SUNNY     56  20  24 SW23      29.92F
HILL CITY      SUNNY     59  14  17 SW14      29.90F
RUSSELL        SUNNY     56  18  22 SW23      29.90F
$$

KSZ061>065-074>080-084>089-152300-
SOUTHWEST KANSAS

CITY           SKY/WX    TMP DP  RH WIND       PRES   REMARKS
DODGE CITY     SUNNY     55  18  23 SW13      30.00F
GARDEN CITY    SUNNY     56  10  16 SW14      29.97F
GREAT BEND     SUNNY     55  20  25 SW17      29.96F
LIBERAL        SUNNY     58  14  17 SW12      30.02F
$$

KSZ066>073-081>083-090>101-152300-
SOUTHEAST KANSAS

CITY           SKY/WX    TMP DP  RH WIND       PRES   REMARKS
CHANUTE        CLEAR     48  23  37 SW12G20   30.09F
COFFEYVILLE    SUNNY     49  24  37 W13       30.12F
HUTCHINSON     SUNNY     52  22  30 SW16      30.01F
MEDICINE LODGE   N/A     55  24  30 S9        30.03F
NEWTON         SUNNY     49  24  37 SW17      30.03F
PARSONS        CLEAR     48  23  37 SW9       30.11F
WICHITA INTL   SUNNY     50  25  37 SW15      30.05F
WICHITA JABRA  SUNNY     48  25  40 SW14      30.05F
WICHITA MCCONL SUNNY     49  23  36 SW16      30.05F
WINFIELD       SUNNY     49  26  41 SW12      30.10F
$$

KSZ007>012-019>026-033>040-048>060-102>105-152300-
NORTHEAST KANSAS

CITY           SKY/WX    TMP DP  RH WIND       PRES   REMARKS
CONCORDIA      CLEAR     52  22  30 SW14      29.90F
EMPORIA        CLEAR     48  24  39 SW15      30.04F
LAWRENCE       CLEAR     48  24  39 SW15G21   30.02F
MANHATTAN      CLEAR     52  24  33 SW16G23   29.95F
OLATHE IND     CLEAR     45  22  40 SW16      30.04F
OLATHE EXE     CLEAR     44  21  40 SW15      30.03F
SALINA         SUNNY     56  21  25 SW17      29.96F
TOPEKA BILLARD CLEAR     49  25  39 SW15G21   30.00F
TOPEKA FORBES  CLEAR     49  24  37 SW12      29.99F
$$



USA.gov is the U.S. government's official web portal to all federal, state and local government web resources and services.